Sterling, IL

4:04 PM CDT on September 20, 2017 (GMT -0500)
Whiteside County-Bittorf

Weather History for KSQI - March, 2014

Change the Weather History Date:

Saturday, March 15, 2014

  Actual Average Record
Temperature  
Mean Temperature 34 °F -  
Max Temperature 42 °F 42 °F 82 °F (2012)
Min Temperature 28 °F 25 °F 10 °F (1997)
Degree Days  
Heating Degree Days 30    
Moisture  
Dew Point 27 °F    
Average Humidity 72    
Maximum Humidity 86    
Minimum Humidity 60    
Precipitation  
Precipitation 0.00 in - - ()
Sea Level Pressure  
Sea Level Pressure 30.07 in    
Wind  
Wind Speed 9 mph (NNE)    
Max Wind Speed 16 mph    
Max Gust Speed 21 mph    
Visibility 10 miles    
Events      
Averages and records for this station are not official NWS values.
T = Trace of Precipitation, MM = Missing Value Source: NWS Daily Summary

Daily Weather History Graph

Daily Weather History Graph

Search for Another Location

Airport or City:

Trip Planner

Search our weather history database for the weather conditions in past years. The results will help you decide how hot, cold, wet, or windy it might be!

Date:

Astronomy

Mar. 15, 2014 Rise Set
Actual Time 7:10 AM CDT 7:05 PM CDT
Civil Twilight 6:42 AM CDT 7:33 PM CDT
Nautical Twilight 6:10 AM CDT 8:05 PM CDT
Astronomical Twilight 5:37 AM CDT 8:38 PM CDT
Moon 6:24 PM CDT (3/15) 6:22 AM CDT (3/15)
Length of Visible Light 12h 50m
Length of Day
11h 54m
Waxing Gibbous, 99% of the Moon is Illuminated
Mar 15
Waxing Gibbous
Mar 16
Full
Mar 23
Last Quarter
Mar 30
New
Apr 7
First Quarter

Hourly Weather History & Observations

Time (CDT) Temp. Windchill Dew Point Humidity Pressure Visibility Wind Dir Wind Speed Gust Speed Precip Events Conditions
12:15 AM 35.6 °F 27.1 °F 30.2 °F 81% 29.90 in 10.0 mi West 12.7 mph - N/A   Clear
12:35 AM 35.6 °F 27.5 °F 30.2 °F 81% 29.90 in 10.0 mi West 11.5 mph - N/A   Clear
12:55 AM 35.6 °F 26.6 °F 30.2 °F 81% 29.91 in 10.0 mi West 13.8 mph - N/A   Clear
1:15 AM 35.6 °F 27.1 °F 30.2 °F 81% 29.91 in 10.0 mi WNW 12.7 mph - N/A   Clear
1:35 AM 35.6 °F 26.2 °F 30.2 °F 81% 29.92 in 10.0 mi WNW 15.0 mph - N/A   Clear
1:55 AM 35.6 °F 27.5 °F 28.4 °F 75% 29.93 in 10.0 mi WNW 11.5 mph - N/A   Clear
2:15 AM 35.6 °F 28.6 °F 28.4 °F 75% 29.94 in 10.0 mi WNW 9.2 mph - N/A   Clear
2:35 AM 33.8 °F 26.4 °F 28.4 °F 81% 29.94 in 10.0 mi West 9.2 mph - N/A   Clear
2:55 AM 33.8 °F 26.4 °F 26.6 °F 75% 29.94 in 10.0 mi WNW 9.2 mph - N/A   Clear
3:15 AM 32.0 °F 24.8 °F 26.6 °F 80% 29.94 in 10.0 mi West 8.1 mph - N/A   Clear
3:35 AM 30.2 °F 23.4 °F 26.6 °F 86% 29.95 in 10.0 mi WNW 6.9 mph - N/A   Clear
3:55 AM 30.2 °F 23.4 °F 24.8 °F 80% 29.94 in 10.0 mi West 6.9 mph - N/A   Clear
4:15 AM 30.2 °F 21.9 °F 26.6 °F 86% 29.95 in 10.0 mi West 9.2 mph - N/A   Clear
4:35 AM 32.0 °F 23.6 °F 26.6 °F 80% 29.97 in 10.0 mi WNW 10.4 mph - N/A   Clear
4:55 AM 30.2 °F 22.6 °F 26.6 °F 86% 29.98 in 10.0 mi West 8.1 mph - N/A   Clear
5:15 AM 28.4 °F 21.2 °F 24.8 °F 86% 29.99 in 10.0 mi WNW 6.9 mph - N/A   Clear
5:35 AM 32.0 °F 25.6 °F 26.6 °F 80% 29.99 in 10.0 mi NNW 6.9 mph - N/A   Mostly Cloudy
5:55 AM 32.0 °F 27.5 °F 26.6 °F 80% 29.99 in 10.0 mi NW 4.6 mph - N/A   Mostly Cloudy
6:15 AM 30.2 °F - 24.8 °F 80% 30.00 in 10.0 mi Calm Calm - N/A   Mostly Cloudy
6:35 AM 32.0 °F 25.6 °F 24.8 °F 75% 30.01 in 10.0 mi WNW 6.9 mph - N/A   Overcast
6:55 AM 30.2 °F 25.4 °F 26.6 °F 86% 30.02 in 10.0 mi WNW 4.6 mph - N/A   Scattered Clouds
7:15 AM 32.0 °F 28.7 °F 26.6 °F 80% 30.03 in 10.0 mi WNW 3.5 mph - N/A   Clear
7:35 AM 32.0 °F 27.5 °F 24.8 °F 75% 30.03 in 10.0 mi NNW 4.6 mph - N/A   Clear
7:55 AM 32.0 °F 27.5 °F 24.8 °F 75% 30.04 in 10.0 mi North 4.6 mph - N/A   Partly Cloudy
8:15 AM 33.8 °F 29.6 °F 24.8 °F 70% 30.05 in 10.0 mi North 4.6 mph - N/A   Clear
8:35 AM 33.8 °F 27.7 °F 24.8 °F 70% 30.04 in 10.0 mi NNE 6.9 mph - N/A   Clear
8:55 AM 33.8 °F 29.6 °F 24.8 °F 70% 30.05 in 10.0 mi North 4.6 mph - N/A   Clear
9:15 AM 35.6 °F 31.7 °F 24.8 °F 65% 30.06 in 10.0 mi NNE 4.6 mph - N/A   Clear
9:35 AM 35.6 °F 29.9 °F 24.8 °F 65% 30.08 in 10.0 mi North 6.9 mph - N/A   Clear
9:55 AM 37.4 °F 32.8 °F 26.6 °F 65% 30.09 in 10.0 mi NNE 5.8 mph - N/A   Clear
10:15 AM 37.4 °F 32.1 °F 24.8 °F 60% 30.09 in 10.0 mi NE 6.9 mph - N/A   Clear
10:35 AM 35.6 °F 29.9 °F 26.6 °F 70% 30.10 in 10.0 mi NE 6.9 mph - N/A   Clear
10:55 AM 37.4 °F 32.8 °F 26.6 °F 65% 30.10 in 10.0 mi North 5.8 mph - N/A   Partly Cloudy
11:15 AM 37.4 °F 31.4 °F 26.6 °F 65% 30.10 in 10.0 mi NE 8.1 mph - N/A   Mostly Cloudy
11:35 AM 37.4 °F 32.8 °F 26.6 °F 65% 30.10 in 10.0 mi NE 5.8 mph - N/A   Scattered Clouds
11:55 AM 39.2 °F 34.2 °F 26.6 °F 61% 30.11 in 10.0 mi NE 6.9 mph - N/A   Partly Cloudy
12:15 PM 39.2 °F 35.0 °F 26.6 °F 61% 30.12 in 10.0 mi NE 5.8 mph - N/A   Clear
12:35 PM 39.2 °F 35.9 °F 26.6 °F 61% 30.12 in 10.0 mi ENE 4.6 mph - N/A   Clear
12:55 PM 39.2 °F 35.0 °F 26.6 °F 61% 30.11 in 10.0 mi ESE 5.8 mph - N/A   Clear
1:15 PM 39.2 °F 34.2 °F 28.4 °F 65% 30.11 in 10.0 mi ESE 6.9 mph - N/A   Clear
1:35 PM 39.2 °F 34.2 °F 28.4 °F 65% 30.11 in 10.0 mi East 6.9 mph - N/A   Partly Cloudy
1:55 PM 39.2 °F 34.2 °F 28.4 °F 65% 30.11 in 10.0 mi East 6.9 mph - N/A   Partly Cloudy
2:15 PM 39.2 °F - 28.4 °F 65% 30.11 in 10.0 mi Calm Calm - N/A   Partly Cloudy
2:35 PM 39.2 °F 35.0 °F 28.4 °F 65% 30.11 in 10.0 mi ESE 5.8 mph - N/A   Clear
2:55 PM 39.2 °F 33.6 °F 28.4 °F 65% 30.11 in 10.0 mi East 8.1 mph - N/A   Clear
3:15 PM 41.0 °F 35.8 °F 28.4 °F 61% 30.11 in 10.0 mi East 8.1 mph - N/A   Clear
3:35 PM 41.0 °F 35.8 °F 30.2 °F 65% 30.11 in 10.0 mi ESE 8.1 mph - N/A   Clear
3:55 PM 41.0 °F 33.5 °F 28.4 °F 61% 30.10 in 10.0 mi East 13.8 mph - N/A   Clear
4:15 PM 41.0 °F 34.3 °F 28.4 °F 61% 30.10 in 10.0 mi ENE 11.5 mph - N/A   Clear
4:35 PM 39.2 °F 33.6 °F 28.4 °F 65% 30.10 in 10.0 mi NE 8.1 mph - N/A   Clear
4:55 PM 39.2 °F 33.0 °F 26.6 °F 61% 30.10 in 10.0 mi ENE 9.2 mph - N/A   Clear
5:15 PM 39.2 °F 31.2 °F 28.4 °F 65% 30.11 in 10.0 mi ENE 13.8 mph - N/A   Clear
5:35 PM 39.2 °F 32.0 °F 26.6 °F 61% 30.11 in 10.0 mi ENE 11.5 mph - N/A   Clear
5:55 PM 37.4 °F 30.3 °F 26.6 °F 65% 30.13 in 10.0 mi NE 10.4 mph - N/A   Clear
6:15 PM 37.4 °F 30.3 °F 26.6 °F 65% 30.13 in 10.0 mi ENE 10.4 mph - N/A   Clear
6:35 PM 37.4 °F 29.8 °F 26.6 °F 65% 30.14 in 10.0 mi East 11.5 mph - N/A   Clear
6:55 PM 35.6 °F 27.1 °F 26.6 °F 70% 30.15 in 10.0 mi East 12.7 mph - N/A   Partly Cloudy
7:15 PM 35.6 °F 28.0 °F 24.8 °F 65% 30.16 in 10.0 mi ENE 10.4 mph - N/A   Partly Cloudy
7:35 PM 35.6 °F 29.2 °F 24.8 °F 65% 30.17 in 10.0 mi NE 8.1 mph - N/A   Partly Cloudy
7:55 PM 35.6 °F 28.6 °F 24.8 °F 65% 30.17 in 10.0 mi NE 9.2 mph - N/A   Clear
8:15 PM 33.8 °F 25.8 °F 24.8 °F 70% 30.18 in 10.0 mi ENE 10.4 mph - N/A   Partly Cloudy
8:35 PM 35.6 °F 26.2 °F 24.8 °F 65% 30.18 in 10.0 mi ENE 15.0 mph - N/A   Partly Cloudy
8:55 PM 33.8 °F 25.3 °F 24.8 °F 70% 30.20 in 10.0 mi ENE 11.5 mph - N/A   Clear
9:15 PM 33.8 °F 25.8 °F 26.6 °F 75% 30.20 in 10.0 mi ENE 10.4 mph - N/A   Clear
9:35 PM 33.8 °F 26.4 °F 24.8 °F 70% 30.19 in 10.0 mi NE 9.2 mph - N/A   Clear
9:55 PM 33.8 °F 25.3 °F 26.6 °F 75% 30.19 in 10.0 mi ENE 11.5 mph - N/A   Clear
10:15 PM 33.8 °F 27.0 °F 24.8 °F 70% 30.20 in 10.0 mi NE 8.1 mph - N/A   Clear
10:35 PM 33.8 °F 25.3 °F 26.6 °F 75% 30.19 in 10.0 mi NE 11.5 mph - N/A   Scattered Clouds
10:55 PM 33.8 °F 25.3 °F 28.4 °F 81% 30.19 in 10.0 mi NE 11.5 mph 18.4 mph N/A   Scattered Clouds
11:15 PM 33.8 °F 25.3 °F 28.4 °F 81% 30.20 in 10.0 mi NE 11.5 mph 16.1 mph N/A   Partly Cloudy
11:35 PM 32.0 °F 21.6 °F 26.6 °F 80% 30.21 in 10.0 mi ENE 15.0 mph 20.7 mph N/A   Scattered Clouds
11:55 PM 30.2 °F 18.9 °F 26.6 °F 86% 30.21 in 10.0 mi ENE 16.1 mph - N/A   Mostly Cloudy